Lexington Weather

Lexington, Massachusetts, USA

68°F
9/23/2021 5:33am 
  • Lexington Conditions: Mostly cloudy
  • Temperature: 67.6°F / 19.8°CWarmer 0.7°F than last hour.
  • Dew Point: 66.7°FIncreased 1.0°Fsince last hour.
  • Relative Humidity: 97%Increased 1.0% since last hour.
  • Wind: Calm, 10-min avg: Calm, gust: 3 mph
  • Barometer: 30.03 in Steady
  • Visibility: 10 miles
  • Rain Today: 0.00 in
  •   

Regional Weather Roundup
for Boston / Norton, MA

        
000
ASUS41 KBOX 161104
RWRBOX

REGIONAL WEATHER ROUNDUP
NATIONAL WEATHER SERVICE BOSTON/NORTON MA
700 AM EDT THU SEP 16 2021

NOTE:  "FAIR" INDICATES FEW OR NO CLOUDS BELOW 12,000 FEET WITH NO 
SIGNIFICANT WEATHER AND/OR OBSTRUCTIONS TO VISIBILITY.

MAZALL-161200-
EASTERN MASSACHUSETTS
  
CITY           SKY/WX    TMP DP  RH WIND       PRES   REMARKS
BOSTON         HVY RAIN  68  64  87 VRB7      30.18S FOG              
BEVERLY        RAIN      66  39  37 CALM      30.19R                  
LAWRENCE       LGT RAIN  66  65  96 CALM      30.21R FOG              
BEDFORD        LGT RAIN  66  65  96 E5        30.16F                  
BLUE HILL      NOT AVBL                                               
NORWOOD        LGT RAIN  67  64  90 NE3       30.17R                  
MARSHFIELD     RAIN      66  64  94 VRB5      30.18R                  
PLYMOUTH       RAIN      68  64  87 N9        30.17R                  
TAUNTON        HVY RAIN  68  66  93 NW5       30.19R FOG              
NEW BEDFORD    TSTM      70  69  97 N9        30.14R FOG              
$$

MAZALL-161200-
CAPE COD AND THE ISLANDS
  
CITY           SKY/WX    TMP DP  RH WIND       PRES   REMARKS
FALMOUTH       CLOUDY    72  72 100 NE6       30.14R                  
HYANNIS        LGT RAIN  73  72  96 N3        30.14R                  
CHATHAM        CLOUDY    73  71  93 CALM      30.16R                  
PROVINCETOWN   LGT RAIN  68  65  90 N13       30.18R                  
NANTUCKET      CLOUDY    72  70  93 S9        30.15R                  
MARTHAS VNYRD  CLOUDY    72  72 100 S3        30.14R FOG              
$$
 
MAZALL-161200-
CENTRAL AND WESTERN MASSACHUSETTS
  
CITY           SKY/WX    TMP DP  RH WIND       PRES   REMARKS
WORCESTER      CLOUDY    64  61  90 NW5       30.20R                  
FITCHBURG      CLOUDY    65  64  97 N3        30.18F                  
ORANGE         CLOUDY    63  62  97 CALM      30.20R                  
SPRINGFIELD    LGT RAIN  63  63 100 CALM      30.16R                  
WESTFIELD      CLOUDY    64  64 100 N9        30.14F                  
NORTH ADAMS    CLOUDY    62  59  90 CALM      30.19R                  
PITTSFIELD     CLOUDY    59  58  96 NE5       30.17R                  
$$
 
RIZALL-161200-
RHODE ISLAND
  
CITY           SKY/WX    TMP DP  RH WIND       PRES   REMARKS
PROVIDENCE     CLOUDY    69  64  84 N13G22    30.17R THUNDER          
NEWPORT        TSTM      67  67 100 N9        30.19R FOG              
BLOCK ISLAND   TSTM     N/A N/A N/A MISG      30.18                   
SMITHFIELD     LGT RAIN  65  64  97 E5        30.16F                  
WESTERLY       LGT RAIN  65  65 100 VRB6      30.16R                  
$$
 
CTZALL-161200-
CONNECTICUT
  
CITY           SKY/WX    TMP DP  RH WIND       PRES   REMARKS
BRADLEY INTL   CLOUDY    64  64 100 N10       30.15R                  
HARTFORD       LGT RAIN  67  64  90 NE9       30.13R                  
BRIDGEPORT     CLOUDY    71  62  73 NE8       30.12R                  
DANBURY        LGT RAIN  67  64  90 VRB3      30.16R                  
GROTON         LGT RAIN  69  65  86 NE9       30.13R                  
NEW HAVEN      CLOUDY    71  65  81 NE7       30.13R                  
CHESTER        MOCLDY    68  64  88 NE3       30.15R                  
MERIDEN        CLOUDY    67  63  87 CALM      30.13R                  
WILLIMANTIC    CLOUDY    65  64  97 NW7       30.16R                  
OXFORD         CLOUDY    64  62  93 E5        30.15S                  
$$

MEZ002-015-021-024-NHZ003-005-008-011-012-014-VTZ005-008-161200-
NORTHERN NEW ENGLAND
  
CITY           SKY/WX    TMP DP  RH WIND       PRES   REMARKS
PORTLAND ME    CLOUDY    65  64  97 N3        30.19R                  
BANGOR ME      MOCLDY    58  55  90 N7        30.19R                  
CONCORD NH     NOT AVBL                                               
MANCHESTER NH  CLOUDY    67  63  87 NE5       30.16R                  
NASHUA NH      CLOUDY    65  65 100 CALM      30.18R                  
PORTSMOUTH NH  MOCLDY    65  64  96 S7        30.21R                  
JAFFREY NH     CLOUDY    63  63 100 CALM      30.20R                  
KEENE NH       CLOUDY    63  63 100 N3        30.19R                  
BURLINGTON VT  FOG       54  54 100 E3        30.24R VSB 3/4          
MT. WASHINGTON NOT AVBL                                               
$$

NYZ052-076-161200-
EASTERN NEW YORK
  
CITY           SKY/WX    TMP DP  RH WIND       PRES   REMARKS
ALBANY         CLOUDY    56  56 100 N6        30.20R                  
NEW YORK CITY  CLOUDY    73  62  68 E10       30.11R                  
$$
 
ANZALL-161200-
MARINE OBSERVATIONS
  
STATION/POSITION TIME  TEMP    WIND        PRES    VSBY  WAVE
                       AIR SEA DIR/SP/G                  HT/PER
                 (UTC) (F)     (DEG/KT/KT) (MB)    (MI)  (FT/S)
BOSTON BUOY      1040      66  330/ 10/ 14 1022.1R
BUZZARDS BAY     1000          190/ 10/ 11 1020.4R
NANTUCKET SOUND  1040   73 72  210/  8/ 10 1020.3R
MASS BAY-STELLWA 1004   66      40/  6/  8 1020.3R  1 7/8  1/ 5
ISLE OF SHOALS   1000   66     210/  5/  6 1020.8R
S OF BLOCK IS    1026      69                N/A           4/ 6
$$

......................KEY.........................
  SKY/WX - SKY CONDITION/PRESENT WEATHER
  TMP    - TEMPERATURE IN FAHRENHEIT
  DWPT   - DEWPOINT IN FAHRENHEIT
  RH     - RELATIVE HUMIDITY IN PERCENT
  WIND   - DIRECTION AND SPEED IN MPH
  PRES   - MEAN SEA LEVEL PRESSURE IN INCHES OF HG
  WCI    - WIND CHILL INDEX
  VSB    - VISIBILITY IN MILES
  HX     - HEAT INDEX
  TC     - TEMPERATURE IN CELSIUS
  VRB    - VARIABLE WIND DIRECTION
  N/A    - NOT AVAILABLE
  
      

Other recent Regional Weather Roundups

Thu Sep 23, 5:04am

Thu Sep 23, 4:04am

Thu Sep 23, 3:04am

Thu Sep 23, 2:04am

Thu Sep 23, 1:04am

Thu Sep 23, 12:04am

Wed Sep 22, 11:04pm

Wed Sep 22, 10:04pm

Wed Sep 22, 9:04pm

Wed Sep 22, 8:04pm

Wed Sep 22, 7:04pm

Wed Sep 22, 6:04pm

Wed Sep 22, 5:04pm

Wed Sep 22, 4:04pm

Wed Sep 22, 3:04pm

Wed Sep 22, 2:04pm

Wed Sep 22, 1:04pm

Wed Sep 22, 12:05pm

Wed Sep 22, 11:04am

Wed Sep 22, 10:04am

Wed Sep 22, 9:04am

Wed Sep 22, 8:04am

Wed Sep 22, 7:04am

Wed Sep 22, 6:04am

Wed Sep 22, 5:04am

Wed Sep 22, 4:04am

Wed Sep 22, 3:04am

Wed Sep 22, 2:04am

Wed Sep 22, 1:04am

Wed Sep 22, 12:04am

Tue Sep 21, 11:04pm

Tue Sep 21, 10:04pm

Tue Sep 21, 9:04pm

Tue Sep 21, 8:04pm

Tue Sep 21, 7:04pm

Tue Sep 21, 6:04pm

Tue Sep 21, 5:04pm

Tue Sep 21, 4:04pm

Tue Sep 21, 3:04pm

Tue Sep 21, 2:04pm

Tue Sep 21, 1:04pm

Tue Sep 21, 12:04pm

Tue Sep 21, 11:04am

Tue Sep 21, 10:04am

Tue Sep 21, 9:04am

Tue Sep 21, 8:04am

Tue Sep 21, 7:04am

Tue Sep 21, 6:04am

Tue Sep 21, 5:04am

Tue Sep 21, 4:04am

Tue Sep 21, 3:04am

Tue Sep 21, 2:04am

Tue Sep 21, 1:04am

Tue Sep 21, 12:04am

Mon Sep 20, 11:04pm

Mon Sep 20, 10:04pm

Mon Sep 20, 9:04pm

Mon Sep 20, 8:04pm

Mon Sep 20, 7:04pm

Mon Sep 20, 6:04pm

Mon Sep 20, 5:04pm

Mon Sep 20, 4:04pm

Mon Sep 20, 3:04pm

Mon Sep 20, 2:04pm

Mon Sep 20, 1:04pm

Mon Sep 20, 12:04pm

Mon Sep 20, 11:04am

Mon Sep 20, 10:04am

Mon Sep 20, 9:04am

Mon Sep 20, 7:04am

Mon Sep 20, 6:04am

Mon Sep 20, 5:04am

Mon Sep 20, 4:04am

Mon Sep 20, 3:04am

Mon Sep 20, 2:04am

Mon Sep 20, 1:04am

Mon Sep 20, 12:04am

Sun Sep 19, 11:04pm

Sun Sep 19, 10:04pm

Sun Sep 19, 9:04pm

Sun Sep 19, 8:04pm

Sun Sep 19, 7:04pm

Sun Sep 19, 6:04pm

Sun Sep 19, 5:04pm

Sun Sep 19, 4:04pm

Sun Sep 19, 3:04pm

Sun Sep 19, 2:05pm

Sun Sep 19, 1:04pm

Sun Sep 19, 12:04pm

Sun Sep 19, 11:04am

Sun Sep 19, 10:05am

Sun Sep 19, 9:04am

Sun Sep 19, 8:04am

Sun Sep 19, 7:04am

Sun Sep 19, 6:04am

Sun Sep 19, 5:04am

Sun Sep 19, 4:04am

Sun Sep 19, 3:04am

Sun Sep 19, 2:04am

Sun Sep 19, 1:04am

Sun Sep 19, 12:04am

Sat Sep 18, 11:05pm

Sat Sep 18, 10:04pm

Sat Sep 18, 9:04pm

Sat Sep 18, 8:04pm

Sat Sep 18, 7:04pm

Sat Sep 18, 6:04pm

Sat Sep 18, 5:04pm

Sat Sep 18, 4:04pm

Sat Sep 18, 3:04pm

Sat Sep 18, 2:04pm

Sat Sep 18, 1:04pm

Sat Sep 18, 12:04pm

Sat Sep 18, 11:04am

Sat Sep 18, 10:04am

Sat Sep 18, 9:04am

Sat Sep 18, 8:04am

Sat Sep 18, 7:04am

Sat Sep 18, 6:04am

Sat Sep 18, 5:04am

Sat Sep 18, 4:04am

Sat Sep 18, 3:04am

Sat Sep 18, 2:04am

Sat Sep 18, 1:04am

Sat Sep 18, 12:04am

Fri Sep 17, 11:04pm

Fri Sep 17, 10:04pm

Fri Sep 17, 9:04pm

Fri Sep 17, 8:04pm

Fri Sep 17, 7:04pm

Fri Sep 17, 6:04pm

Fri Sep 17, 5:04pm

Fri Sep 17, 4:04pm

Fri Sep 17, 3:04pm

Fri Sep 17, 2:04pm

Fri Sep 17, 1:04pm

Fri Sep 17, 12:05pm

Fri Sep 17, 11:04am

Fri Sep 17, 10:04am

Fri Sep 17, 9:04am

Fri Sep 17, 8:04am

Fri Sep 17, 7:04am

Fri Sep 17, 6:04am

Fri Sep 17, 5:04am

Fri Sep 17, 4:04am

Fri Sep 17, 3:04am

Fri Sep 17, 2:04am

Fri Sep 17, 1:04am

Fri Sep 17, 12:04am

Thu Sep 16, 11:04pm

Thu Sep 16, 10:04pm

Thu Sep 16, 9:04pm

Thu Sep 16, 8:04pm

Thu Sep 16, 7:04pm

Thu Sep 16, 6:04pm

Thu Sep 16, 5:04pm

Thu Sep 16, 4:04pm

Thu Sep 16, 3:04pm

Thu Sep 16, 2:04pm

Thu Sep 16, 1:05pm

Thu Sep 16, 12:04pm

Thu Sep 16, 11:05am

Thu Sep 16, 10:05am

Thu Sep 16, 9:04am

Thu Sep 16, 8:04am

Thu Sep 16, 6:04am

Meta data:

ID: 6945956a-dcae-4c78-972c-4610bdfeaaf9
Link: https://api.weather.gov/products/6945956a-dcae-4c78-972c-4610bdfeaaf9